This demonstration page uses our WeatherBlox Daily Observations layout. Learn more.

Left ArrowRight Arrow

34.74481, -87.66753

Hourly Observations for December 10, 2020

Temp ( °F °C ) Dew Point ( °F °C ) Humidity (%) Winds ( mph kmh ) Pressure ( in mb ) Visibility ( mi km ) Precip ( " mm )
12:53 am 00:53 Clear 40 4.4 36 2.2 86 86 Calm 30.04 1017 10 16 0.00 0.00
1:53 am 01:53 Clear 39 3.9 35 1.7 86 86 Calm 30.05 1018 10 16 0.00 0.00
2:53 am 02:53 Clear 38 3.3 35 1.7 89 89 Calm 30.05 1018 10 16 0.00 0.00
3:53 am 03:53 Clear 37 2.8 34 1.1 89 89 Calm 30.05 1018 10 16 0.00 0.00
4:53 am 04:53 Clear 36 2.2 33 0.6 89 89 NNE 3 6 30.05 1018 10 16 0.00 0.00
5:53 am 05:53 Clear 36 2.2 32 0 86 86 Calm 30.06 1018 10 16 0.00 0.00
6:53 am 06:53 Sunny 36 2.2 33 0.6 89 89 Calm 30.08 1019 10 16 0.00 0.00
7:53 am 07:53 Sunny 42 5.6 37 2.8 82 82 Calm 30.08 1019 10 16 0.00 0.00
8:53 am 08:53 Sunny 51 10.6 40 4.4 66 66 Calm 30.10 1019 10 16 0.00 0.00
9:53 am 09:53 Sunny 57 13.9 40 4.4 53 53 Calm 30.10 1019 10 16 0.00 0.00
10:53 am 10:53 Sunny 64 17.8 40 4.4 41 41 Calm 30.09 1019 10 16 0.00 0.00
11:53 am 11:53 Sunny 68 20 39 3.9 35 35 Calm 30.06 1018 10 16 0.00 0.00
12:53 pm 12:53 Sunny 71 21.7 36 2.2 28 28 SSW 6 9 30.04 1017 10 16 0.00 0.00
1:53 pm 13:53 Sunny 73 22.8 36 2.2 26 26 WSW 9 15 30.03 1017 10 16 0.00 0.00
2:53 pm 14:53 Sunny 73 22.8 37 2.8 27 27 SW 7 11 30.02 1017 10 16 0.00 0.00
3:53 pm 15:53 Sunny 69 20.6 39 3.9 33 33 SSW 6 9 30.04 1017 10 16 0.00 0.00
4:53 pm 16:53 Clear 66 18.9 37 2.8 34 34 S 5 7 30.05 1018 10 16 0.00 0.00
5:53 pm 17:53 Clear 58 14.4 37 2.8 46 46 SSE 6 9 30.06 1018 10 16 0.00 0.00
6:53 pm 18:53 Clear 51 10.6 38 3.3 61 61 SSE 5 7 30.07 1018 10 16 0.00 0.00
7:53 pm 19:53 Clear 50 10 38 3.3 63 63 SE 3 6 30.07 1018 10 16 0.00 0.00
8:53 pm 20:53 Clear 49 9.4 38 3.3 66 66 SSE 3 6 30.07 1018 10 16 0.00 0.00
9:53 pm 21:53 Clear 48 8.9 38 3.3 68 68 SE 3 6 30.07 1018 10 16 0.00 0.00
10:53 pm 22:53 Clear 45 7.2 37 2.8 74 74 SSE 3 6 30.06 1018 10 16 0.00 0.00
11:53 pm 23:53 Clear 46 7.8 37 2.8 71 71 SE 5 7 30.07 1018 10 16 0.00 0.00

Powered by AerisWeather